| time (UTC) | temp F | wind direction | speed MPH | gust MPH | rain 1hr in | rain 24hr in | rain mn in | humidity % | barometer mb |
| 20260904042318 | 71 | 218 | 2.0 | 5.0 | 0.06 | 0.37 | 0.00 | 93 | 1013.3 |
| 20260904041344 | 71 | 248 | 2.0 | 4.0 | 0.09 | 0.37 | 0.00 | 93 | 1013.5 |
| 20260904040344 | 71 | 311 | 3.0 | 4.0 | 0.10 | 0.37 | 0.00 | 93 | 1013.0 |
| 20260904035400 | 71 | 214 | 3.0 | 8.0 | 0.11 | 0.37 | 0.37 | 92 | 1012.8 |
| 20260904034339 | 71 | 145 | 5.0 | 8.0 | 0.10 | 0.35 | 0.35 | 93 | 1013.6 |
| 20260904033340 | 72 | 167 | 4.0 | 7.0 | 0.08 | 0.33 | 0.33 | 92 | 1015.3 |
| 20260904032402 | 72 | 168 | 4.0 | 5.0 | 0.06 | 0.31 | 0.31 | 92 | 1015.9 |
| 20260904031322 | 72 | 192 | 1.0 | 2.0 | 0.03 | 0.28 | 0.28 | 91 | 1015.8 |
| 20260904030345 | 72 | 343 | 2.0 | 5.0 | 0.02 | 0.27 | 0.27 | 91 | 1015.8 |
| 20260904025331 | 72 | 9 | 2.0 | 5.0 | 0.01 | 0.26 | 0.26 | 91 | 1015.2 |
| 20260904024336 | 72 | 322 | 1.0 | 4.0 | 0.04 | 0.25 | 0.25 | 90 | 1015.0 |
| 20260904023317 | 72 | 101 | 0.0 | 5.0 | 0.05 | 0.25 | 0.25 | 89 | 1014.3 |
| 20260904022317 | 73 | 90 | 4.0 | 8.0 | 0.05 | 0.25 | 0.25 | 88 | 1014.3 |
| 20260904021323 | 73 | 116 | 3.0 | 7.0 | 0.05 | 0.25 | 0.25 | 86 | 1014.6 |
| 20260904020314 | 75 | 78 | 3.0 | 8.0 | 0.05 | 0.25 | 0.25 | 84 | 1014.7 |
| 20260904015320 | 76 | 46 | 4.0 | 12.0 | 0.04 | 0.24 | 0.24 | 81 | 1014.6 |
| 20260904014331 | 77 | 309 | 7.0 | 20.0 | 0.00 | 0.20 | 0.20 | 81 | 1014.4 |
| 20260904013356 | 79 | 360 | 12.0 | 16.0 | 0.00 | 0.20 | 0.20 | 89 | 1013.5 |
| 20260904012401 | 79 | 155 | 0.0 | 1.0 | 0.00 | 0.20 | 0.20 | 88 | 1012.4 |
| 20260904011331 | 79 | 155 | 0.0 | 2.0 | 0.00 | 0.20 | 0.20 | 88 | 1012.6 |
| 20260904010336 | 79 | 155 | 0.0 | 1.0 | 0.00 | 0.20 | 0.20 | 88 | 1012.4 |
| 20260904005318 | 79 | 155 | 1.0 | 2.0 | 0.00 | 0.20 | 0.20 | 88 | 1012.2 |
| 20260904004333 | 79 | 155 | 0.0 | 1.0 | 0.00 | 0.20 | 0.20 | 87 | 1012.5 |
| 20260904003340 | 79 | 155 | 0.0 | 0.0 | 0.00 | 0.20 | 0.20 | 86 | 1012.3 |
| 20260904002315 | 79 | 155 | 0.0 | 1.0 | 0.00 | 0.20 | 0.20 | 86 | 1012.4 |
| 20260904001339 | 80 | 155 | 0.0 | 2.0 | 0.00 | 0.20 | 0.20 | 85 | 1012.6 |
| 20260904000341 | 80 | 155 | 0.0 | 3.0 | 0.00 | 0.20 | 0.20 | 84 | 1012.9 |
| 20260903235315 | 81 | 153 | 0.0 | 1.0 | 0.00 | 0.20 | 0.20 | 82 | 1013.1 |
| 20260903234318 | 81 | 153 | 0.0 | 2.0 | 0.00 | 0.20 | 0.20 | 81 | 1013.0 |
| 20260903233348 | 82 | 151 | 1.0 | 5.0 | 0.00 | 0.20 | 0.20 | 80 | 1012.9 |
| 20260903232344 | 82 | 181 | 3.0 | 5.0 | 0.00 | 0.20 | 0.20 | 79 | 1012.7 |
| 20260903231316 | 83 | 152 | 2.0 | 5.0 | 0.00 | 0.20 | 0.20 | 78 | 1012.2 |
| 20260903230316 | 83 | 153 | 2.0 | 5.0 | 0.00 | 0.20 | 0.20 | 76 | 1012.2 |
| 20260903225334 | 84 | 165 | 2.0 | 4.0 | 0.00 | 0.20 | 0.20 | 76 | 1012.2 |
| 20260903224351 | 85 | 161 | 3.0 | 5.0 | 0.00 | 0.20 | 0.20 | 76 | 1012.2 |
| 20260903223327 | 86 | 143 | 1.0 | 3.0 | 0.00 | 0.20 | 0.20 | 74 | 1012.2 |
| 20260903222359 | 88 | 163 | 2.0 | 3.0 | 0.00 | 0.20 | 0.20 | 71 | 1012.2 |
| 20260903221340 | 89 | 155 | 2.0 | 3.0 | 0.00 | 0.20 | 0.20 | 70 | 1012.0 |
| 20260903220340 | 90 | 166 | 3.0 | 5.0 | 0.00 | 0.20 | 0.20 | 64 | 1011.9 |
| 20260903215346 | 90 | 175 | 4.0 | 7.0 | 0.00 | 0.20 | 0.20 | 64 | 1011.9 |
| 20260903214326 | 89 | 243 | 2.0 | 6.0 | 0.00 | 0.20 | 0.20 | 65 | 1012.0 |
| 20260903213320 | 89 | 192 | 3.0 | 8.0 | 0.00 | 0.20 | 0.20 | 65 | 1012.0 |
| 20260903212339 | 89 | 211 | 2.0 | 5.0 | 0.00 | 0.20 | 0.20 | 66 | 1012.1 |
| 20260903211341 | 89 | 209 | 4.0 | 7.0 | 0.00 | 0.20 | 0.20 | 65 | 1012.0 |
| 20260903210322 | 89 | 248 | 3.0 | 5.0 | 0.00 | 0.20 | 0.20 | 66 | 1012.0 |
| 20260903205339 | 88 | 259 | 3.0 | 7.0 | 0.00 | 0.20 | 0.20 | 66 | 1012.2 |
| 20260903204340 | 88 | 242 | 4.0 | 8.0 | 0.00 | 0.20 | 0.20 | 67 | 1012.3 |
| 20260903203336 | 88 | 261 | 4.0 | 10.0 | 0.00 | 0.20 | 0.20 | 68 | 1012.3 |
| 20260903202336 | 89 | 216 | 4.0 | 7.0 | 0.00 | 0.20 | 0.20 | 68 | 1012.6 |
| 20260903201317 | 88 | 215 | 5.0 | 8.0 | 0.00 | 0.20 | 0.20 | 69 | 1012.7 |
| 20260903200316 | 88 | 235 | 4.0 | 8.0 | 0.00 | 0.20 | 0.20 | 69 | 1012.8 |
| 20260903195317 | 87 | 223 | 4.0 | 8.0 | 0.00 | 0.20 | 0.20 | 69 | 1013.0 |
| 20260903194332 | 87 | 177 | 2.0 | 7.0 | 0.00 | 0.20 | 0.20 | 70 | 1013.1 |
| 20260903193336 | 87 | 234 | 3.0 | 9.0 | 0.00 | 0.20 | 0.20 | 70 | 1013.4 |
| 20260903192317 | 86 | 206 | 3.0 | 9.0 | 0.00 | 0.20 | 0.20 | 72 | 1013.6 |
| 20260903191316 | 85 | 216 | 2.0 | 7.0 | 0.00 | 0.20 | 0.20 | 73 | 1013.7 |
| 20260903190338 | 85 | 202 | 5.0 | 10.0 | 0.00 | 0.20 | 0.20 | 72 | 1014.0 |
| 20260903185318 | 84 | 229 | 5.0 | 8.0 | 0.00 | 0.20 | 0.20 | 77 | 1014.2 |
| 20260903184355 | 83 | 292 | 3.0 | 10.0 | 0.00 | 0.20 | 0.20 | 74 | 1014.3 |
| 20260903183353 | 83 | 213 | 1.0 | 9.0 | 0.00 | 0.20 | 0.20 | 78 | 1014.4 |
| 20260903182336 | 81 | 166 | 4.0 | 6.0 | 0.00 | 0.20 | 0.20 | 81 | 1014.3 |
| 20260903181314 | 80 | 219 | 2.0 | 5.0 | 0.00 | 0.20 | 0.20 | 84 | 1014.7 |
| 20260903180337 | 78 | 223 | 2.0 | 5.0 | 0.00 | 0.20 | 0.20 | 85 | 1014.9 |
| 20260903175351 | 78 | 222 | 3.0 | 5.0 | 0.00 | 0.20 | 0.20 | 85 | 1015.0 |
| 20260903174332 | 78 | 227 | 2.0 | 6.0 | 0.00 | 0.20 | 0.20 | 84 | 1015.0 |
| 20260903173339 | 78 | 194 | 5.0 | 8.0 | 0.00 | 0.20 | 0.20 | 85 | 1015.1 |
| 20260903172326 | 78 | 260 | 5.0 | 9.0 | 0.00 | 0.20 | 0.20 | 86 | 1015.2 |
| 20260903171317 | 77 | 170 | 3.0 | 7.0 | 0.00 | 0.20 | 0.20 | 89 | 1015.4 |
| 20260903170350 | 75 | 196 | 3.0 | 6.0 | 0.00 | 0.20 | 0.20 | 91 | 1015.4 |
| 20260903165327 | 74 | 169 | 2.0 | 4.0 | 0.00 | 0.29 | 0.20 | 90 | 1015.4 |
| 20260903164333 | 74 | 227 | 3.0 | 5.0 | 0.00 | 0.29 | 0.20 | 90 | 1015.8 |
| 20260903163334 | 74 | 202 | 1.0 | 4.0 | 0.00 | 0.29 | 0.20 | 91 | 1016.1 |
| 20260903162334 | 73 | 221 | 2.0 | 4.0 | 0.00 | 0.29 | 0.20 | 90 | 1016.3 |
| 20260903161336 | 74 | 248 | 2.0 | 4.0 | 0.00 | 0.29 | 0.20 | 91 | 1016.5 |
| 20260903160322 | 73 | 313 | 3.0 | 4.0 | 0.00 | 0.29 | 0.20 | 92 | 1016.7 |
| 20260903155330 | 72 | 329 | 1.0 | 2.0 | 0.00 | 0.29 | 0.20 | 94 | 1016.4 |
| 20260903154334 | 72 | 134 | 1.0 | 3.0 | 0.10 | 0.29 | 0.20 | 94 | 1016.7 |
| 20260903153314 | 71 | 134 | 0.0 | 2.0 | 0.18 | 0.29 | 0.20 | 94 | 1016.7 |
| 20260903152328 | 71 | 134 | 1.0 | 2.0 | 0.18 | 0.29 | 0.20 | 93 | 1016.9 |
| 20260903151315 | 70 | 140 | 3.0 | 4.0 | 0.18 | 0.29 | 0.20 | 93 | 1016.8 |
| 20260903150332 | 70 | 95 | 1.0 | 2.0 | 0.18 | 0.29 | 0.20 | 92 | 1017.4 |
| 20260903145315 | 71 | 78 | 3.0 | 7.0 | 0.17 | 0.28 | 0.19 | 91 | 1017.5 |
| 20260903144329 | 72 | 44 | 4.0 | 18.0 | 0.08 | 0.19 | 0.10 | 92 | 1018.2 |
| 20260903143326 | 73 | 340 | 9.0 | 18.0 | 0.00 | 0.11 | 0.02 | 93 | 1018.6 |
| 20260903142334 | 73 | 123 | 1.0 | 6.0 | 0.00 | 0.11 | 0.02 | 93 | 1016.5 |
| 20260903141337 | 73 | 124 | 4.0 | 11.0 | 0.00 | 0.11 | 0.02 | 93 | 1016.6 |
| 20260903140333 | 73 | 247 | 5.0 | 12.0 | 0.00 | 0.11 | 0.02 | 93 | 1017.4 |
| 20260903135334 | 74 | 249 | 3.0 | 6.0 | 0.00 | 0.11 | 0.02 | 93 | 1016.6 |
| 20260903134336 | 74 | 141 | 3.0 | 5.0 | 0.00 | 0.11 | 0.02 | 93 | 1015.6 |
| 20260903133332 | 73 | 161 | 3.0 | 9.0 | 0.00 | 0.11 | 0.02 | 93 | 1015.8 |
| 20260903132335 | 73 | 236 | 4.0 | 10.0 | 0.00 | 0.11 | 0.02 | 94 | 1016.5 |
| 20260903131316 | 73 | 166 | 2.0 | 9.0 | 0.02 | 0.11 | 0.02 | 94 | 1016.3 |
| 20260903130317 | 73 | 202 | 3.0 | 5.0 | 0.02 | 0.11 | 0.02 | 93 | 1016.1 |
| 20260903125318 | 73 | 199 | 3.0 | 6.0 | 0.02 | 0.11 | 0.02 | 93 | 1016.5 |
| 20260903124325 | 73 | 219 | 2.0 | 4.0 | 0.02 | 0.11 | 0.02 | 92 | 1016.7 |
| 20260903123333 | 73 | 46 | 1.0 | 3.0 | 0.02 | 0.11 | 0.02 | 91 | 1016.6 |
| 20260903122337 | 73 | 330 | 2.0 | 4.0 | 0.02 | 0.11 | 0.02 | 91 | 1017.2 |
| 20260903121313 | 73 | 145 | 3.0 | 6.0 | 0.00 | 0.09 | 0.00 | 90 | 1016.8 |
| 20260903120317 | 73 | 123 | 3.0 | 5.0 | 0.00 | 0.09 | 0.00 | 90 | 1016.6 |
| 20260903115314 | 73 | 235 | 3.0 | 7.0 | 0.00 | 0.09 | 0.00 | 90 | 1017.1 |
| 20260903114312 | 72 | 159 | 2.0 | 5.0 | 0.00 | 0.09 | 0.00 | 90 | 1017.0 |
| 20260903113323 | 72 | 106 | 2.0 | 6.0 | 0.00 | 0.09 | 0.00 | 91 | 1016.8 |
| 20260903112333 | 72 | 42 | 3.0 | 10.0 | 0.00 | 0.09 | 0.00 | 92 | 1016.7 |
| 20260903111336 | 72 | 351 | 3.0 | 8.0 | 0.00 | 0.09 | 0.00 | 92 | 1016.5 |
| 20260903110315 | 72 | 105 | 2.0 | 4.0 | 0.00 | 0.09 | 0.00 | 93 | 1016.6 |
| 20260903105338 | 72 | 360 | 0.0 | 4.0 | 0.00 | 0.09 | 0.00 | 93 | 1016.9 |
| 20260903104313 | 72 | 351 | 2.0 | 6.0 | 0.00 | 0.09 | 0.00 | 93 | 1016.8 |
| 20260903103324 | 72 | 96 | 4.0 | 9.0 | 0.00 | 0.09 | 0.00 | 93 | 1016.5 |
| 20260903102340 | 72 | 119 | 3.0 | 9.0 | 0.00 | 0.09 | 0.00 | 93 | 1016.8 |
| 20260903101317 | 72 | 5 | 5.0 | 9.0 | 0.00 | 0.09 | 0.00 | 93 | 1016.8 |
| 20260903100315 | 72 | 351 | 3.0 | 6.0 | 0.00 | 0.09 | 0.00 | 93 | 1016.8 |
| 20260903095334 | 72 | 342 | 4.0 | 5.0 | 0.00 | 0.09 | 0.00 | 93 | 1016.7 |
| 20260903094313 | 72 | 24 | 2.0 | 10.0 | 0.00 | 0.09 | 0.00 | 92 | 1016.0 |
| 20260903093334 | 72 | 130 | 5.0 | 8.0 | 0.00 | 0.09 | 0.00 | 92 | 1015.6 |
| 20260903092322 | 72 | 117 | 6.0 | 10.0 | 0.00 | 0.09 | 0.00 | 92 | 1015.5 |
| 20260903091356 | 72 | 132 | 1.0 | 3.0 | 0.00 | 0.09 | 0.00 | 91 | 1015.7 |
| 20260903090340 | 72 | 104 | 1.0 | 4.0 | 0.00 | 0.09 | 0.00 | 91 | 1015.6 |
| 20260903085319 | 73 | 17 | 2.0 | 7.0 | 0.00 | 0.09 | 0.00 | 91 | 1015.8 |
| 20260903084403 | 73 | 92 | 3.0 | 9.0 | 0.00 | 0.09 | 0.00 | 91 | 1015.6 |
| 20260903083334 | 73 | 178 | 1.0 | 3.0 | 0.00 | 0.09 | 0.00 | 91 | 1015.2 |
| 20260903082338 | 73 | 146 | 2.0 | 4.0 | 0.00 | 0.09 | 0.00 | 91 | 1015.1 |
| 20260903081318 | 73 | 316 | 1.0 | 3.0 | 0.00 | 0.09 | 0.00 | 91 | 1015.1 |
| 20260903080342 | 73 | 129 | 1.0 | 3.0 | 0.00 | 0.09 | 0.00 | 92 | 1014.8 |
| 20260903075316 | 73 | 167 | 1.0 | 4.0 | 0.00 | 0.09 | 0.00 | 92 | 1014.7 |
| 20260903074338 | 73 | 203 | 2.0 | 5.0 | 0.00 | 0.09 | 0.00 | 91 | 1014.8 |
| 20260903073316 | 72 | 140 | 2.0 | 8.0 | 0.00 | 0.09 | 0.00 | 91 | 1014.9 |
| 20260903072338 | 72 | 148 | 2.0 | 4.0 | 0.00 | 0.09 | 0.00 | 91 | 1015.1 |
| 20260903071319 | 72 | 111 | 3.0 | 4.0 | 0.00 | 0.09 | 0.00 | 91 | 1015.0 |
| 20260903070318 | 73 | 32 | 0.0 | 2.0 | 0.00 | 0.09 | 0.00 | 90 | 1015.2 |
| 20260903065335 | 73 | 32 | 1.0 | 2.0 | 0.00 | 0.09 | 0.00 | 90 | 1015.2 |
| 20260903064338 | 73 | 32 | 0.0 | 1.0 | 0.00 | 0.09 | 0.00 | 89 | 1015.2 |
| 20260903063327 | 73 | 32 | 1.0 | 2.0 | 0.00 | 0.09 | 0.00 | 89 | 1015.0 |
| 20260903062324 | 74 | 32 | 1.0 | 2.0 | 0.00 | 0.09 | 0.00 | 89 | 1014.9 |
| 20260903061338 | 74 | 32 | 1.0 | 2.0 | 0.00 | 0.09 | 0.00 | 89 | 1014.8 |
| 20260903060317 | 74 | 32 | 0.0 | 2.0 | 0.00 | 0.09 | 0.00 | 88 | 1014.6 |
| 20260903055317 | 74 | 19 | 2.0 | 3.0 | 0.00 | 0.09 | 0.00 | 88 | 1014.6 |
| 20260903054341 | 74 | 225 | 0.0 | 1.0 | 0.00 | 0.09 | 0.00 | 87 | 1014.5 |
| 20260903053339 | 75 | 225 | 0.0 | 4.0 | 0.00 | 0.09 | 0.00 | 86 | 1014.5 |
| 20260903052319 | 75 | 184 | 3.0 | 4.0 | 0.00 | 0.09 | 0.00 | 86 | 1014.7 |
| 20260903051317 | 75 | 182 | 2.0 | 4.0 | 0.00 | 0.09 | 0.00 | 86 | 1014.7 |
| 20260903050318 | 75 | 165 | 2.0 | 3.0 | 0.00 | 0.09 | 0.00 | 86 | 1014.9 |
| 20260903045356 | 75 | 200 | 0.0 | 2.0 | 0.00 | 0.09 | 0.00 | 85 | 1015.1 |
| 20260903044339 | 75 | 200 | 1.0 | 3.0 | 0.00 | 0.09 | 0.00 | 84 | 1015.0 |
| 20260903043340 | 75 | 198 | 1.0 | 4.0 | 0.00 | 0.09 | 0.00 | 84 | 1014.9 |